Hourly Weather Harbin

Today, 4 July, Saturday

Time Temperature Precipitation Wind Pressure Humidity
00:00 +21°C° 0.2 mm 3 mps 743 mmHg 80%
01:00 +21°C° 0.2 mm 3 mps 742 mmHg 82%
02:00 +20°C° 0.2 mm 3 mps 742 mmHg 83%
03:00 +20°C° 0.1 mm 3 mps 742 mmHg 83%
04:00 +20°C° 0.1 mm 3 mps 742 mmHg 83%
05:00 +20°C° 0.1 mm 3 mps 742 mmHg 84%
06:00 +22°C° 0 mm 3 mps 742 mmHg 80%
07:00 +24°C° 0 mm 3 mps 742 mmHg 76%
08:00 +26°C° 0 mm 3 mps 741 mmHg 72%
09:00 +26°C° 0.3 mm 3 mps 741 mmHg 70%
10:00 +27°C° 0.3 mm 4 mps 741 mmHg 69%
11:00 +27°C° 0.3 mm 4 mps 740 mmHg 67%
12:00 +28°C° 0.2 mm 4 mps 740 mmHg 63%
13:00 +29°C° 0.2 mm 3 mps 739 mmHg 59%
14:00 +30°C° 0.2 mm 3 mps 739 mmHg 55%
15:00 +29°C° 0.7 mm 3 mps 739 mmHg 58%
16:00 +29°C° 0.7 mm 2 mps 739 mmHg 61%
17:00 +28°C° 0.7 mm 2 mps 738 mmHg 63%
18:00 +27°C° 1.5 mm 2 mps 738 mmHg 68%
19:00 +26°C° 1.5 mm 2 mps 738 mmHg 73%
20:00 +25°C° 1.5 mm 2 mps 738 mmHg 78%
21:00 +24°C° 0 mm 2 mps 738 mmHg 80%
22:00 +22°C° 0 mm 3 mps 738 mmHg 83%
23:00 +22°C° 0 mm 3 mps 738 mmHg 86%

Tomorrow, 5 July, Sunday

Time Temperature Precipitation Wind Pressure Humidity
00:00 +21°C° 0.1 mm 3 mps 738 mmHg 87%
01:00 +21°C° 0.1 mm 3 mps 737 mmHg 88%
02:00 +21°C° 0.1 mm 3 mps 737 mmHg 89%
03:00 +21°C° 0.1 mm 3 mps 737 mmHg 88%
04:00 +21°C° 0.1 mm 3 mps 737 mmHg 88%
05:00 +20°C° 0.1 mm 3 mps 737 mmHg 88%
06:00 +21°C° 0 mm 4 mps 737 mmHg 84%
07:00 +22°C° 0 mm 4 mps 737 mmHg 80%
08:00 +23°C° 0 mm 5 mps 737 mmHg 77%
09:00 +25°C° 0 mm 5 mps 737 mmHg 75%
10:00 +25°C° 0 mm 5 mps 737 mmHg 74%
11:00 +26°C° 0 mm 5 mps 737 mmHg 72%
12:00 +26°C° 0 mm 5 mps 736 mmHg 72%
13:00 +26°C° 0 mm 5 mps 736 mmHg 71%
14:00 +27°C° 0 mm 4 mps 735 mmHg 71%
15:00 +27°C° 0 mm 4 mps 735 mmHg 70%
16:00 +28°C° 0 mm 3 mps 735 mmHg 69%
17:00 +28°C° 0 mm 3 mps 734 mmHg 68%
18:00 +27°C° 1.2 mm 3 mps 734 mmHg 73%
19:00 +26°C° 1.2 mm 3 mps 734 mmHg 78%
20:00 +25°C° 1.2 mm 3 mps 734 mmHg 83%
21:00 +24°C° 0.4 mm 3 mps 734 mmHg 85%
22:00 +23°C° 0.4 mm 4 mps 734 mmHg 86%
23:00 +22°C° 0.4 mm 4 mps 735 mmHg 88%

Day after tomorrow, 6 July, Monday

Time Temperature Precipitation Wind Pressure Humidity
00:00 +22°C° 0.5 mm 4 mps 735 mmHg 89%
01:00 +21°C° 0.5 mm 4 mps 735 mmHg 90%
02:00 +21°C° 0.5 mm 4 mps 735 mmHg 91%
03:00 +21°C° 0.1 mm 5 mps 735 mmHg 91%
04:00 +21°C° 0.1 mm 5 mps 735 mmHg 91%
05:00 +21°C° 0.1 mm 5 mps 735 mmHg 90%
06:00 +21°C° 0 mm 5 mps 736 mmHg 88%
07:00 +22°C° 0 mm 6 mps 736 mmHg 85%
08:00 +23°C° 0 mm 6 mps 736 mmHg 83%
09:00 +23°C° 0 mm 6 mps 736 mmHg 79%
10:00 +24°C° 0 mm 6 mps 736 mmHg 74%
11:00 +26°C° 0 mm 6 mps 737 mmHg 70%
12:00 +27°C° 0 mm 6 mps 736 mmHg 67%
13:00 +28°C° 0 mm 6 mps 736 mmHg 64%
14:00 +28°C° 0 mm 7 mps 736 mmHg 62%
15:00 +28°C° 0 mm 6 mps 736 mmHg 62%
16:00 +28°C° 0 mm 6 mps 736 mmHg 62%
17:00 +27°C° 0 mm 5 mps 736 mmHg 62%
18:00 +26°C° 1.3 mm 5 mps 736 mmHg 69%
19:00 +23°C° 1.3 mm 5 mps 737 mmHg 75%
20:00 +22°C° 1.3 mm 5 mps 737 mmHg 82%
21:00 +21°C° 0.5 mm 4 mps 738 mmHg 84%
22:00 +21°C° 0.5 mm 4 mps 738 mmHg 85%
23:00 +20°C° 0.5 mm 3 mps 738 mmHg 87%

7 July, Tuesday

Time Temperature Precipitation Wind Pressure Humidity
00:00 +20°C° 0 mm 3 mps 738 mmHg 89%
01:00 +19°C° 0 mm 3 mps 738 mmHg 90%
02:00 +19°C° 0 mm 2 mps 738 mmHg 92%
03:00 +19°C° 0 mm 2 mps 738 mmHg 91%
04:00 +19°C° 0 mm 2 mps 739 mmHg 91%
05:00 +19°C° 0 mm 2 mps 739 mmHg 91%
06:00 +20°C° 0 mm 2 mps 740 mmHg 82%
07:00 +23°C° 0 mm 2 mps 740 mmHg 74%
08:00 +24°C° 0 mm 2 mps 740 mmHg 65%
09:00 +26°C° 0 mm 3 mps 740 mmHg 58%
10:00 +27°C° 0 mm 3 mps 741 mmHg 52%
11:00 +28°C° 0 mm 4 mps 741 mmHg 45%
12:00 +28°C° 0 mm 4 mps 740 mmHg 43%
13:00 +29°C° 0 mm 4 mps 740 mmHg 41%
14:00 +29°C° 0 mm 4 mps 740 mmHg 39%
15:00 +29°C° 0 mm 3 mps 740 mmHg 42%
16:00 +29°C° 0 mm 3 mps 741 mmHg 45%
17:00 +28°C° 0 mm 2 mps 741 mmHg 48%
18:00 +27°C° 0 mm 2 mps 741 mmHg 51%
19:00 +25°C° 0 mm 1 mps 741 mmHg 54%
20:00 +23°C° 0 mm 1 mps 741 mmHg 58%
21:00 +22°C° 0 mm 1 mps 741 mmHg 60%
22:00 +22°C° 0 mm 1 mps 741 mmHg 62%
23:00 +20°C° 0 mm 2 mps 741 mmHg 64%

8 July, Wednesday

Time Temperature Precipitation Wind Pressure Humidity
00:00 +20°C° 0 mm 2 mps 741 mmHg 66%
01:00 +19°C° 0 mm 2 mps 741 mmHg 67%
02:00 +19°C° 0 mm 2 mps 741 mmHg 69%
03:00 +19°C° 0 mm 2 mps 741 mmHg 70%
04:00 +19°C° 0 mm 2 mps 742 mmHg 71%
05:00 +19°C° 0 mm 3 mps 742 mmHg 72%
06:00 +20°C° 0 mm 3 mps 742 mmHg 69%
07:00 +22°C° 0 mm 3 mps 742 mmHg 66%
08:00 +25°C° 0 mm 3 mps 742 mmHg 63%
09:00 +27°C° 0 mm 3 mps 742 mmHg 57%
10:00 +29°C° 0 mm 3 mps 742 mmHg 51%
11:00 +31°C° 0 mm 3 mps 742 mmHg 45%
12:00 +32°C° 0 mm 4 mps 742 mmHg 43%
13:00 +33°C° 0 mm 4 mps 742 mmHg 40%
14:00 +33°C° 0 mm 4 mps 741 mmHg 38%
15:00 +33°C° 0 mm 3 mps 741 mmHg 41%
16:00 +33°C° 0 mm 3 mps 741 mmHg 43%
17:00 +32°C° 0 mm 2 mps 741 mmHg 46%
18:00 +29°C° 0 mm 2 mps 741 mmHg 49%
19:00 +27°C° 0 mm 2 mps 741 mmHg 52%
20:00 +25°C° 0 mm 2 mps 741 mmHg 55%
21:00 +25°C° 0 mm 2 mps 741 mmHg 54%
22:00 +24°C° 0 mm 2 mps 741 mmHg 53%
23:00 +23°C° 0 mm 2 mps 742 mmHg 52%

9 July, Thursday

Time Temperature Precipitation Wind Pressure Humidity
00:00 +23°C° 0 mm 2 mps 741 mmHg 53%
01:00 +21°C° 0 mm 3 mps 741 mmHg 53%
02:00 +21°C° 0 mm 3 mps 741 mmHg 54%
03:00 +21°C° 0 mm 3 mps 741 mmHg 58%
04:00 +20°C° 0 mm 3 mps 741 mmHg 61%
05:00 +20°C° 0 mm 3 mps 742 mmHg 64%
06:00 +22°C° 0 mm 3 mps 742 mmHg 61%
07:00 +25°C° 0 mm 3 mps 742 mmHg 58%
08:00 +27°C° 0 mm 3 mps 742 mmHg 55%
09:00 +29°C° 0 mm 3 mps 742 mmHg 50%
10:00 +30°C° 0 mm 4 mps 742 mmHg 46%
11:00 +33°C° 0 mm 4 mps 741 mmHg 41%
12:00 +33°C° 0 mm 4 mps 741 mmHg 41%
13:00 +34°C° 0 mm 4 mps 741 mmHg 41%
14:00 +34°C° 0 mm 4 mps 741 mmHg 40%
15:00 +34°C° 0 mm 4 mps 741 mmHg 44%
16:00 +34°C° 0 mm 3 mps 741 mmHg 48%
17:00 +33°C° 0 mm 3 mps 740 mmHg 52%
18:00 +31°C° 0 mm 3 mps 741 mmHg 56%
19:00 +29°C° 0 mm 3 mps 741 mmHg 60%
20:00 +27°C° 0 mm 3 mps 741 mmHg 64%
21:00 +26°C° 0.4 mm 2 mps 741 mmHg 69%
22:00 +25°C° 0.4 mm 2 mps 742 mmHg 73%
23:00 +24°C° 0.4 mm 1 mps 742 mmHg 77%
Show more